User: anonymous   Login
Location: ????????
(54.8751°N, 38.5756°E)
Time: 16:56:26
(UTC+00:00)
Language:

CZ-2C R/B - Orbit

View from above orbital plane
View from above orbital plane
View from above satellite
View from above satellite

Ground track
Ground track

The orbit data is extracted from the following two-line orbital elements,

1 31114U 07010B   24172.99113245  .00000152  00000-0  89494-4 0  9994
2 31114  98.3332 308.8351 0058526 318.2165  41.4551 14.19797706890783
Epoch (UTC): 20 June 2024 23:47:13
Eccentricity: 0.0058526
inclination: 98.3332°
perigee height: 784 km
apogee height: 868 km
right ascension of ascending node: 308.8351°
argument of perigee: 318.2165°
revolutions per day: 14.19797706
mean anomaly at epoch: 41.4551°
orbit number at epoch: 89078

The dashed part of the orbit path shows where the satellite is in the earth's shadow,  

DLR